Data supplied by UK-AIR on 5/4/2008
All Data GMT hour ending 
Status: R =Ratified P=Provisional,P*=As supplied
,,Narberth,,,,,,,,,,,,,,,,,,,,,,,
Date,time,"PM10 particulate matter (Hourly measured)",status,unit,"Nitric oxide",status,unit,"Nitrogen dioxide",status,unit,"Nitrogen oxides as nitrogen dioxide",status,unit,"Ozone",status,unit,"Sulphur dioxide",status,unit
 
01-01-2003,01:00,10,R,ugm-3 (GRAV EQ),0.0,R,ugm-3,13.8,R,ugm-3,13.8,R,ugm-3,48,R,ugm-3,,,
01-01-2003,02:00,8,R,ugm-3 (GRAV EQ),,,,,,,,,,68,R,ugm-3,,,
01-01-2003,03:00,0,R,ugm-3 (GRAV EQ),0.0,R,ugm-3,9.2,R,ugm-3,9.2,R,ugm-3,72,R,ugm-3,,,
01-01-2003,04:00,4,R,ugm-3 (GRAV EQ),1.1,R,ugm-3,7.4,R,ugm-3,9.2,R,ugm-3,76,R,ugm-3,,,
01-01-2003,05:00,4,R,ugm-3 (GRAV EQ),1.8,R,ugm-3,6.7,R,ugm-3,9.4,R,ugm-3,76,R,ugm-3,,,
01-01-2003,06:00,1,R,ugm-3 (GRAV EQ),0.0,R,ugm-3,7.4,R,ugm-3,7.4,R,ugm-3,76,R,ugm-3,,,
01-01-2003,07:00,1,R,ugm-3 (GRAV EQ),1.1,R,ugm-3,5.7,R,ugm-3,7.4,R,ugm-3,76,R,ugm-3,,,
01-01-2003,08:00,1,R,ugm-3 (GRAV EQ),1.8,R,ugm-3,5.0,R,ugm-3,7.6,R,ugm-3,76,R,ugm-3,,,
01-01-2003,09:00,5,R,ugm-3 (GRAV EQ),1.8,R,ugm-3,6.1,R,ugm-3,8.8,R,ugm-3,72,R,ugm-3,,,
01-01-2003,10:00,0,R,ugm-3 (GRAV EQ),1.8,R,ugm-3,6.7,R,ugm-3,9.4,R,ugm-3,70,R,ugm-3,,,
01-01-2003,11:00,3,R,ugm-3 (GRAV EQ),1.8,R,ugm-3,5.5,R,ugm-3,8.2,R,ugm-3,74,R,ugm-3,,,
01-01-2003,12:00,5,R,ugm-3 (GRAV EQ),0.0,R,ugm-3,6.9,R,ugm-3,6.9,R,ugm-3,74,R,ugm-3,,,
01-01-2003,13:00,4,R,ugm-3 (GRAV EQ),0.0,R,ugm-3,7.4,R,ugm-3,7.4,R,ugm-3,76,R,ugm-3,,,
01-01-2003,14:00,9,R,ugm-3 (GRAV EQ),0.0,R,ugm-3,8.0,R,ugm-3,8.0,R,ugm-3,76,R,ugm-3,,,
01-01-2003,15:00,8,R,ugm-3 (GRAV EQ),0.0,R,ugm-3,8.6,R,ugm-3,8.6,R,ugm-3,74,R,ugm-3,,,
01-01-2003,16:00,7,R,ugm-3 (GRAV EQ),0.6,R,ugm-3,8.4,R,ugm-3,9.4,R,ugm-3,76,R,ugm-3,,,
01-01-2003,17:00,4,R,ugm-3 (GRAV EQ),0.0,R,ugm-3,6.9,R,ugm-3,6.9,R,ugm-3,78,R,ugm-3,,,
01-01-2003,18:00,8,R,ugm-3 (GRAV EQ),0.0,R,ugm-3,9.2,R,ugm-3,9.2,R,ugm-3,78,R,ugm-3,,,
01-01-2003,19:00,7,R,ugm-3 (GRAV EQ),0.0,R,ugm-3,8.0,R,ugm-3,8.0,R,ugm-3,84,R,ugm-3,,,
01-01-2003,20:00,16,R,ugm-3 (GRAV EQ),0.6,R,ugm-3,7.8,R,ugm-3,8.8,R,ugm-3,76,R,ugm-3,,,
01-01-2003,21:00,20,R,ugm-3 (GRAV EQ),0.0,R,ugm-3,8.6,R,ugm-3,8.6,R,ugm-3,72,R,ugm-3,,,
01-01-2003,22:00,20,R,ugm-3 (GRAV EQ),0.0,R,ugm-3,6.9,R,ugm-3,6.9,R,ugm-3,74,R,ugm-3,,,
01-01-2003,23:00,16,R,ugm-3 (GRAV EQ),1.1,R,ugm-3,6.9,R,ugm-3,8.6,R,ugm-3,76,R,ugm-3,,,
01-01-2003,24:00,16,R,ugm-3 (GRAV EQ),1.1,R,ugm-3,8.6,R,ugm-3,10.3,R,ugm-3,72,R,ugm-3,,,
02-01-2003,01:00,16,R,ugm-3 (GRAV EQ),0.0,R,ugm-3,1.5,R,ugm-3,1.5,R,ugm-3,72,R,ugm-3,,,
02-01-2003,02:00,13,R,ugm-3 (GRAV EQ),,,,,,,,,,68,R,ugm-3,,,
02-01-2003,03:00,9,R,ugm-3 (GRAV EQ),0.0,R,ugm-3,4.0,R,ugm-3,4.0,R,ugm-3,68,R,ugm-3,,,
02-01-2003,04:00,9,R,ugm-3 (GRAV EQ),0.0,R,ugm-3,2.3,R,ugm-3,2.3,R,ugm-3,72,R,ugm-3,,,
02-01-2003,05:00,3,R,ugm-3 (GRAV EQ),0.0,R,ugm-3,3.4,R,ugm-3,3.4,R,ugm-3,70,R,ugm-3,,,
02-01-2003,06:00,-1,R,ugm-3 (GRAV EQ),0.0,R,ugm-3,2.9,R,ugm-3,2.9,R,ugm-3,60,R,ugm-3,,,
02-01-2003,07:00,-1,R,ugm-3 (GRAV EQ),0.6,R,ugm-3,2.1,R,ugm-3,3.1,R,ugm-3,74,R,ugm-3,,,
02-01-2003,08:00,3,R,ugm-3 (GRAV EQ),0.6,R,ugm-3,3.2,R,ugm-3,4.2,R,ugm-3,70,R,ugm-3,,,
02-01-2003,09:00,5,R,ugm-3 (GRAV EQ),0.0,R,ugm-3,2.9,R,ugm-3,2.9,R,ugm-3,70,R,ugm-3,,,
02-01-2003,10:00,9,R,ugm-3 (GRAV EQ),0.0,R,ugm-3,5.2,R,ugm-3,5.2,R,ugm-3,60,R,ugm-3,,,
02-01-2003,11:00,9,R,ugm-3 (GRAV EQ),0.0,R,ugm-3,4.6,R,ugm-3,4.6,R,ugm-3,60,R,ugm-3,,,
02-01-2003,12:00,12,R,ugm-3 (GRAV EQ),0.6,R,ugm-3,3.8,R,ugm-3,4.8,R,ugm-3,62,R,ugm-3,,,
02-01-2003,13:00,12,R,ugm-3 (GRAV EQ),0.0,R,ugm-3,4.0,R,ugm-3,4.0,R,ugm-3,68,R,ugm-3,,,
02-01-2003,14:00,16,R,ugm-3 (GRAV EQ),0.0,R,ugm-3,4.6,R,ugm-3,4.6,R,ugm-3,68,R,ugm-3,,,
02-01-2003,15:00,16,R,ugm-3 (GRAV EQ),0.0,R,ugm-3,3.4,R,ugm-3,3.4,R,ugm-3,70,R,ugm-3,,,
02-01-2003,16:00,14,R,ugm-3 (GRAV EQ),0.0,R,ugm-3,4.6,R,ugm-3,4.6,R,ugm-3,70,R,ugm-3,,,
02-01-2003,17:00,17,R,ugm-3 (GRAV EQ),0.0,R,ugm-3,4.6,R,ugm-3,4.6,R,ugm-3,68,R,ugm-3,,,
02-01-2003,18:00,14,R,ugm-3 (GRAV EQ),0.0,R,ugm-3,4.0,R,ugm-3,4.0,R,ugm-3,66,R,ugm-3,,,
02-01-2003,19:00,13,R,ugm-3 (GRAV EQ),0.0,R,ugm-3,4.6,R,ugm-3,4.6,R,ugm-3,56,R,ugm-3,,,
02-01-2003,20:00,14,R,ugm-3 (GRAV EQ),0.0,R,ugm-3,4.6,R,ugm-3,4.6,R,ugm-3,46,R,ugm-3,,,
02-01-2003,21:00,14,R,ugm-3 (GRAV EQ),0.0,R,ugm-3,4.6,R,ugm-3,4.6,R,ugm-3,40,R,ugm-3,,,
02-01-2003,22:00,16,R,ugm-3 (GRAV EQ),0.0,R,ugm-3,5.7,R,ugm-3,5.7,R,ugm-3,32,R,ugm-3,,,
02-01-2003,23:00,16,R,ugm-3 (GRAV EQ),0.0,R,ugm-3,4.6,R,ugm-3,4.6,R,ugm-3,30,R,ugm-3,,,
02-01-2003,24:00,12,R,ugm-3 (GRAV EQ),0.0,R,ugm-3,4.6,R,ugm-3,4.6,R,ugm-3,34,R,ugm-3,,,
03-01-2003,01:00,12,R,ugm-3 (GRAV EQ),0.0,R,ugm-3,4.6,R,ugm-3,4.6,R,ugm-3,30,R,ugm-3,,,
03-01-2003,02:00,8,R,ugm-3 (GRAV EQ),,,,,,,,,,32,R,ugm-3,,,
03-01-2003,03:00,12,R,ugm-3 (GRAV EQ),0.0,R,ugm-3,4.6,R,ugm-3,4.6,R,ugm-3,34,R,ugm-3,,,
03-01-2003,04:00,9,R,ugm-3 (GRAV EQ),0.0,R,ugm-3,4.6,R,ugm-3,4.6,R,ugm-3,32,R,ugm-3,,,
03-01-2003,05:00,8,R,ugm-3 (GRAV EQ),0.0,R,ugm-3,4.6,R,ugm-3,4.6,R,ugm-3,30,R,ugm-3,,,
03-01-2003,06:00,7,R,ugm-3 (GRAV EQ),0.0,R,ugm-3,4.6,R,ugm-3,4.6,R,ugm-3,28,R,ugm-3,,,
03-01-2003,07:00,8,R,ugm-3 (GRAV EQ),0.0,R,ugm-3,5.2,R,ugm-3,5.2,R,ugm-3,32,R,ugm-3,,,
03-01-2003,08:00,12,R,ugm-3 (GRAV EQ),0.0,R,ugm-3,5.7,R,ugm-3,5.7,R,ugm-3,44,R,ugm-3,,,
03-01-2003,09:00,10,R,ugm-3 (GRAV EQ),0.0,R,ugm-3,9.0,R,ugm-3,9.0,R,ugm-3,32,R,ugm-3,,,
03-01-2003,10:00,9,R,ugm-3 (GRAV EQ),0.0,R,ugm-3,9.0,R,ugm-3,9.0,R,ugm-3,36,R,ugm-3,,,
03-01-2003,11:00,8,R,ugm-3 (GRAV EQ),1.1,R,ugm-3,6.7,R,ugm-3,8.4,R,ugm-3,42,R,ugm-3,,,
03-01-2003,12:00,8,R,ugm-3 (GRAV EQ),1.8,R,ugm-3,6.5,R,ugm-3,9.2,R,ugm-3,46,R,ugm-3,,,
03-01-2003,13:00,9,R,ugm-3 (GRAV EQ),0.6,R,ugm-3,4.8,R,ugm-3,5.7,R,ugm-3,54,R,ugm-3,,,
03-01-2003,14:00,12,R,ugm-3 (GRAV EQ),0.0,R,ugm-3,6.3,R,ugm-3,6.3,R,ugm-3,54,R,ugm-3,,,
03-01-2003,15:00,13,R,ugm-3 (GRAV EQ),0.0,R,ugm-3,9.0,R,ugm-3,9.0,R,ugm-3,52,R,ugm-3,,,
03-01-2003,16:00,16,R,ugm-3 (GRAV EQ),0.0,R,ugm-3,9.0,R,ugm-3,9.0,R,ugm-3,54,R,ugm-3,,,
03-01-2003,17:00,14,R,ugm-3 (GRAV EQ),0.0,R,ugm-3,9.0,R,ugm-3,9.0,R,ugm-3,54,R,ugm-3,,,
03-01-2003,18:00,13,R,ugm-3 (GRAV EQ),0.0,R,ugm-3,9.0,R,ugm-3,9.0,R,ugm-3,50,R,ugm-3,,,
03-01-2003,19:00,13,R,ugm-3 (GRAV EQ),0.0,R,ugm-3,6.3,R,ugm-3,6.3,R,ugm-3,58,R,ugm-3,,,
03-01-2003,20:00,14,R,ugm-3 (GRAV EQ),0.0,R,ugm-3,4.6,R,ugm-3,4.6,R,ugm-3,60,R,ugm-3,,,
03-01-2003,21:00,14,R,ugm-3 (GRAV EQ),0.0,R,ugm-3,4.6,R,ugm-3,4.6,R,ugm-3,64,R,ugm-3,,,
03-01-2003,22:00,12,R,ugm-3 (GRAV EQ),0.0,R,ugm-3,3.4,R,ugm-3,3.4,R,ugm-3,68,R,ugm-3,,,
03-01-2003,23:00,13,R,ugm-3 (GRAV EQ),0.0,R,ugm-3,4.6,R,ugm-3,4.6,R,ugm-3,64,R,ugm-3,,,
03-01-2003,24:00,13,R,ugm-3 (GRAV EQ),0.0,R,ugm-3,4.0,R,ugm-3,4.0,R,ugm-3,62,R,ugm-3,,,
04-01-2003,01:00,13,R,ugm-3 (GRAV EQ),0.0,R,ugm-3,3.6,R,ugm-3,3.6,R,ugm-3,62,R,ugm-3,,,
04-01-2003,02:00,14,R,ugm-3 (GRAV EQ),,,,,,,,,,56,R,ugm-3,,,
04-01-2003,03:00,14,R,ugm-3 (GRAV EQ),0.0,R,ugm-3,4.4,R,ugm-3,4.4,R,ugm-3,56,R,ugm-3,,,
04-01-2003,04:00,13,R,ugm-3 (GRAV EQ),0.0,R,ugm-3,4.4,R,ugm-3,4.4,R,ugm-3,62,R,ugm-3,,,
04-01-2003,05:00,13,R,ugm-3 (GRAV EQ),0.0,R,ugm-3,3.4,R,ugm-3,3.4,R,ugm-3,62,R,ugm-3,,,
04-01-2003,06:00,14,R,ugm-3 (GRAV EQ),0.0,R,ugm-3,3.4,R,ugm-3,3.4,R,ugm-3,62,R,ugm-3,,,
04-01-2003,07:00,14,R,ugm-3 (GRAV EQ),0.0,R,ugm-3,3.4,R,ugm-3,3.4,R,ugm-3,62,R,ugm-3,,,
04-01-2003,08:00,13,R,ugm-3 (GRAV EQ),0.0,R,ugm-3,3.8,R,ugm-3,3.8,R,ugm-3,62,R,ugm-3,,,
04-01-2003,09:00,12,R,ugm-3 (GRAV EQ),0.0,R,ugm-3,4.4,R,ugm-3,4.4,R,ugm-3,64,R,ugm-3,,,
04-01-2003,10:00,10,R,ugm-3 (GRAV EQ),0.0,R,ugm-3,4.4,R,ugm-3,4.4,R,ugm-3,62,R,ugm-3,,,
04-01-2003,11:00,10,R,ugm-3 (GRAV EQ),0.0,R,ugm-3,4.4,R,ugm-3,4.4,R,ugm-3,62,R,ugm-3,,,
04-01-2003,12:00,12,R,ugm-3 (GRAV EQ),0.0,R,ugm-3,4.4,R,ugm-3,4.4,R,ugm-3,62,R,ugm-3,,,
04-01-2003,13:00,13,R,ugm-3 (GRAV EQ),0.0,R,ugm-3,5.5,R,ugm-3,5.5,R,ugm-3,60,R,ugm-3,,,
04-01-2003,14:00,14,R,ugm-3 (GRAV EQ),0.0,R,ugm-3,5.0,R,ugm-3,5.0,R,ugm-3,60,R,ugm-3,,,
04-01-2003,15:00,16,R,ugm-3 (GRAV EQ),1.1,R,ugm-3,4.6,R,ugm-3,6.3,R,ugm-3,56,R,ugm-3,,,
04-01-2003,16:00,17,R,ugm-3 (GRAV EQ),0.0,R,ugm-3,8.4,R,ugm-3,8.4,R,ugm-3,52,R,ugm-3,,,
04-01-2003,17:00,20,R,ugm-3 (GRAV EQ),0.0,R,ugm-3,9.0,R,ugm-3,9.0,R,ugm-3,48,R,ugm-3,,,
04-01-2003,18:00,20,R,ugm-3 (GRAV EQ),0.0,R,ugm-3,10.7,R,ugm-3,10.7,R,ugm-3,46,R,ugm-3,,,
04-01-2003,19:00,20,R,ugm-3 (GRAV EQ),0.0,R,ugm-3,12.2,R,ugm-3,12.2,R,ugm-3,44,R,ugm-3,,,
04-01-2003,20:00,18,R,ugm-3 (GRAV EQ),0.0,R,ugm-3,10.1,R,ugm-3,10.1,R,ugm-3,46,R,ugm-3,,,
04-01-2003,21:00,18,R,ugm-3 (GRAV EQ),0.0,R,ugm-3,9.0,R,ugm-3,9.0,R,ugm-3,50,R,ugm-3,,,
04-01-2003,22:00,16,R,ugm-3 (GRAV EQ),0.0,R,ugm-3,7.3,R,ugm-3,7.3,R,ugm-3,50,R,ugm-3,,,
04-01-2003,23:00,12,R,ugm-3 (GRAV EQ),0.0,R,ugm-3,4.4,R,ugm-3,4.4,R,ugm-3,56,R,ugm-3,,,
04-01-2003,24:00,13,R,ugm-3 (GRAV EQ),0.0,R,ugm-3,5.0,R,ugm-3,5.0,R,ugm-3,54,R,ugm-3,,,
05-01-2003,01:00,13,R,ugm-3 (GRAV EQ),0.0,R,ugm-3,3.1,R,ugm-3,3.1,R,ugm-3,54,R,ugm-3,,,
05-01-2003,02:00,13,R,ugm-3 (GRAV EQ),,,,,,,,,,52,R,ugm-3,,,
05-01-2003,03:00,9,R,ugm-3 (GRAV EQ),0.0,R,ugm-3,2.3,R,ugm-3,2.3,R,ugm-3,52,R,ugm-3,,,
05-01-2003,04:00,10,R,ugm-3 (GRAV EQ),0.0,R,ugm-3,2.3,R,ugm-3,2.3,R,ugm-3,50,R,ugm-3,,,
05-01-2003,05:00,10,R,ugm-3 (GRAV EQ),0.0,R,ugm-3,2.3,R,ugm-3,2.3,R,ugm-3,46,R,ugm-3,,,
05-01-2003,06:00,10,R,ugm-3 (GRAV EQ),0.0,R,ugm-3,2.3,R,ugm-3,2.3,R,ugm-3,46,R,ugm-3,,,
05-01-2003,07:00,12,R,ugm-3 (GRAV EQ),0.0,R,ugm-3,3.8,R,ugm-3,3.8,R,ugm-3,48,R,ugm-3,,,
05-01-2003,08:00,10,R,ugm-3 (GRAV EQ),0.0,R,ugm-3,5.0,R,ugm-3,5.0,R,ugm-3,44,R,ugm-3,,,
05-01-2003,09:00,12,R,ugm-3 (GRAV EQ),0.0,R,ugm-3,9.0,R,ugm-3,9.0,R,ugm-3,44,R,ugm-3,,,
05-01-2003,10:00,13,R,ugm-3 (GRAV EQ),4.3,R,ugm-3,15.9,R,ugm-3,22.3,R,ugm-3,36,R,ugm-3,,,
05-01-2003,11:00,10,R,ugm-3 (GRAV EQ),2.6,R,ugm-3,5.9,R,ugm-3,9.9,R,ugm-3,50,R,ugm-3,,,
05-01-2003,12:00,10,R,ugm-3 (GRAV EQ),7.0,R,ugm-3,13.2,R,ugm-3,23.9,R,ugm-3,44,R,ugm-3,,,
05-01-2003,13:00,10,R,ugm-3 (GRAV EQ),12.9,R,ugm-3,14.3,R,ugm-3,34.0,R,ugm-3,38,R,ugm-3,,,
05-01-2003,14:00,12,R,ugm-3 (GRAV EQ),7.6,R,ugm-3,13.9,R,ugm-3,25.6,R,ugm-3,42,R,ugm-3,,,
05-01-2003,15:00,12,R,ugm-3 (GRAV EQ),12.4,R,ugm-3,23.3,R,ugm-3,42.2,R,ugm-3,32,R,ugm-3,,,
05-01-2003,16:00,16,R,ugm-3 (GRAV EQ),5.9,R,ugm-3,20.1,R,ugm-3,29.0,R,ugm-3,32,R,ugm-3,,,
05-01-2003,17:00,17,R,ugm-3 (GRAV EQ),0.0,R,ugm-3,13.4,R,ugm-3,13.4,R,ugm-3,36,R,ugm-3,,,
05-01-2003,18:00,16,R,ugm-3 (GRAV EQ),0.0,R,ugm-3,14.5,R,ugm-3,14.5,R,ugm-3,38,R,ugm-3,,,
05-01-2003,19:00,16,R,ugm-3 (GRAV EQ),1.1,R,ugm-3,14.5,R,ugm-3,16.2,R,ugm-3,34,R,ugm-3,,,
05-01-2003,20:00,13,R,ugm-3 (GRAV EQ),0.0,R,ugm-3,12.2,R,ugm-3,12.2,R,ugm-3,40,R,ugm-3,,,
05-01-2003,21:00,12,R,ugm-3 (GRAV EQ),0.0,R,ugm-3,13.9,R,ugm-3,13.9,R,ugm-3,42,R,ugm-3,,,
05-01-2003,22:00,13,R,ugm-3 (GRAV EQ),0.0,R,ugm-3,11.1,R,ugm-3,11.1,R,ugm-3,44,R,ugm-3,,,
05-01-2003,23:00,13,R,ugm-3 (GRAV EQ),0.0,R,ugm-3,11.7,R,ugm-3,11.7,R,ugm-3,40,R,ugm-3,,,
05-01-2003,24:00,14,R,ugm-3 (GRAV EQ),0.0,R,ugm-3,11.7,R,ugm-3,11.7,R,ugm-3,42,R,ugm-3,,,
06-01-2003,01:00,14,R,ugm-3 (GRAV EQ),0.0,R,ugm-3,10.3,R,ugm-3,10.3,R,ugm-3,44,R,ugm-3,,,
06-01-2003,02:00,17,R,ugm-3 (GRAV EQ),,,,,,,,,,40,R,ugm-3,,,
06-01-2003,03:00,17,R,ugm-3 (GRAV EQ),0.0,R,ugm-3,16.0,R,ugm-3,16.0,R,ugm-3,36,R,ugm-3,,,
06-01-2003,04:00,18,R,ugm-3 (GRAV EQ),0.0,R,ugm-3,18.3,R,ugm-3,18.3,R,ugm-3,32,R,ugm-3,,,
06-01-2003,05:00,16,R,ugm-3 (GRAV EQ),0.5,R,ugm-3,20.2,R,ugm-3,21.0,R,ugm-3,30,R,ugm-3,,,
06-01-2003,06:00,21,R,ugm-3 (GRAV EQ),0.5,R,ugm-3,19.1,R,ugm-3,19.9,R,ugm-3,30,R,ugm-3,,,
06-01-2003,07:00,20,R,ugm-3 (GRAV EQ),0.0,R,ugm-3,19.9,R,ugm-3,19.9,R,ugm-3,32,R,ugm-3,,,
06-01-2003,08:00,18,R,ugm-3 (GRAV EQ),0.0,R,ugm-3,19.3,R,ugm-3,19.3,R,ugm-3,34,R,ugm-3,,,
06-01-2003,09:00,17,R,ugm-3 (GRAV EQ),1.1,R,ugm-3,16.0,R,ugm-3,17.8,R,ugm-3,36,R,ugm-3,,,
06-01-2003,10:00,16,R,ugm-3 (GRAV EQ),3.8,R,ugm-3,16.4,R,ugm-3,22.2,R,ugm-3,38,R,ugm-3,,,
06-01-2003,11:00,16,R,ugm-3 (GRAV EQ),,,,,,,,,,34,R,ugm-3,,,
06-01-2003,12:00,22,R,ugm-3 (GRAV EQ),6.4,R,ugm-3,13.2,R,ugm-3,22.9,R,ugm-3,,,,,,
06-01-2003,13:00,22,R,ugm-3 (GRAV EQ),9.0,R,ugm-3,13.9,R,ugm-3,27.7,R,ugm-3,40,R,ugm-3,,,
06-01-2003,14:00,27,R,ugm-3 (GRAV EQ),6.9,R,ugm-3,12.6,R,ugm-3,23.1,R,ugm-3,42,R,ugm-3,,,
06-01-2003,15:00,17,R,ugm-3 (GRAV EQ),3.3,R,ugm-3,8.4,R,ugm-3,13.4,R,ugm-3,54,R,ugm-3,,,
06-01-2003,16:00,17,R,ugm-3 (GRAV EQ),2.1,R,ugm-3,10.5,R,ugm-3,13.8,R,ugm-3,54,R,ugm-3,,,
06-01-2003,17:00,13,R,ugm-3 (GRAV EQ),2.1,R,ugm-3,8.4,R,ugm-3,11.7,R,ugm-3,54,R,ugm-3,,,
06-01-2003,18:00,16,R,ugm-3 (GRAV EQ),1.6,R,ugm-3,10.7,R,ugm-3,13.2,R,ugm-3,52,R,ugm-3,,,
06-01-2003,19:00,16,R,ugm-3 (GRAV EQ),2.1,R,ugm-3,9.4,R,ugm-3,12.6,R,ugm-3,52,R,ugm-3,,,
06-01-2003,20:00,14,R,ugm-3 (GRAV EQ),2.1,R,ugm-3,7.3,R,ugm-3,10.5,R,ugm-3,54,R,ugm-3,,,
06-01-2003,21:00,10,R,ugm-3 (GRAV EQ),0.0,R,ugm-3,6.7,R,ugm-3,6.7,R,ugm-3,60,R,ugm-3,,,
06-01-2003,22:00,12,R,ugm-3 (GRAV EQ),0.5,R,ugm-3,3.6,R,ugm-3,4.4,R,ugm-3,64,R,ugm-3,,,
06-01-2003,23:00,12,R,ugm-3 (GRAV EQ),0.0,R,ugm-3,4.4,R,ugm-3,4.4,R,ugm-3,64,R,ugm-3,,,
06-01-2003,24:00,9,R,ugm-3 (GRAV EQ),0.0,R,ugm-3,4.4,R,ugm-3,4.4,R,ugm-3,64,R,ugm-3,,,
07-01-2003,01:00,10,R,ugm-3 (GRAV EQ),,,,,,,,,,,,,,,
07-01-2003,02:00,12,R,ugm-3 (GRAV EQ),,,,,,,,,,60,R,ugm-3,,,
07-01-2003,03:00,10,R,ugm-3 (GRAV EQ),0.0,R,ugm-3,4.4,R,ugm-3,4.4,R,ugm-3,58,R,ugm-3,,,
07-01-2003,04:00,10,R,ugm-3 (GRAV EQ),0.0,R,ugm-3,3.8,R,ugm-3,3.8,R,ugm-3,56,R,ugm-3,,,
07-01-2003,05:00,9,R,ugm-3 (GRAV EQ),0.0,R,ugm-3,3.8,R,ugm-3,3.8,R,ugm-3,60,R,ugm-3,,,
07-01-2003,06:00,10,R,ugm-3 (GRAV EQ),0.0,R,ugm-3,2.9,R,ugm-3,2.9,R,ugm-3,62,R,ugm-3,,,
07-01-2003,07:00,9,R,ugm-3 (GRAV EQ),0.0,R,ugm-3,4.4,R,ugm-3,4.4,R,ugm-3,58,R,ugm-3,,,
07-01-2003,08:00,10,R,ugm-3 (GRAV EQ),0.0,R,ugm-3,4.4,R,ugm-3,4.4,R,ugm-3,56,R,ugm-3,,,
07-01-2003,09:00,12,R,ugm-3 (GRAV EQ),1.1,R,ugm-3,6.7,R,ugm-3,8.4,R,ugm-3,52,R,ugm-3,,,
07-01-2003,10:00,13,R,ugm-3 (GRAV EQ),1.6,R,ugm-3,11.8,R,ugm-3,14.3,R,ugm-3,42,R,ugm-3,,,
07-01-2003,11:00,14,R,ugm-3 (GRAV EQ),3.8,R,ugm-3,10.3,R,ugm-3,16.0,R,ugm-3,44,R,ugm-3,,,
07-01-2003,12:00,14,R,ugm-3 (GRAV EQ),4.3,R,ugm-3,13.4,R,ugm-3,19.9,R,ugm-3,46,R,ugm-3,,,
07-01-2003,13:00,13,R,ugm-3 (GRAV EQ),4.3,R,ugm-3,11.7,R,ugm-3,18.1,R,ugm-3,54,R,ugm-3,,,
07-01-2003,14:00,17,R,ugm-3 (GRAV EQ),3.3,R,ugm-3,12.2,R,ugm-3,17.2,R,ugm-3,50,R,ugm-3,,,
07-01-2003,15:00,16,R,ugm-3 (GRAV EQ),2.1,R,ugm-3,13.9,R,ugm-3,17.2,R,ugm-3,48,R,ugm-3,,,
07-01-2003,16:00,20,R,ugm-3 (GRAV EQ),1.6,R,ugm-3,11.3,R,ugm-3,13.8,R,ugm-3,52,R,ugm-3,,,
07-01-2003,17:00,18,R,ugm-3 (GRAV EQ),1.1,R,ugm-3,16.0,R,ugm-3,17.8,R,ugm-3,46,R,ugm-3,,,
07-01-2003,18:00,17,R,ugm-3 (GRAV EQ),0.0,R,ugm-3,16.0,R,ugm-3,16.0,R,ugm-3,50,R,ugm-3,,,
07-01-2003,19:00,18,R,ugm-3 (GRAV EQ),0.0,R,ugm-3,24.8,R,ugm-3,24.8,R,ugm-3,42,R,ugm-3,,,
07-01-2003,20:00,21,R,ugm-3 (GRAV EQ),0.0,R,ugm-3,28.7,R,ugm-3,28.7,R,ugm-3,36,R,ugm-3,,,
07-01-2003,21:00,18,R,ugm-3 (GRAV EQ),0.0,R,ugm-3,26.0,R,ugm-3,26.0,R,ugm-3,38,R,ugm-3,,,
07-01-2003,22:00,17,R,ugm-3 (GRAV EQ),0.0,R,ugm-3,23.7,R,ugm-3,23.7,R,ugm-3,40,R,ugm-3,,,
07-01-2003,23:00,17,R,ugm-3 (GRAV EQ),0.0,R,ugm-3,22.7,R,ugm-3,22.7,R,ugm-3,40,R,ugm-3,,,
07-01-2003,24:00,14,R,ugm-3 (GRAV EQ),0.0,R,ugm-3,21.0,R,ugm-3,21.0,R,ugm-3,38,R,ugm-3,,,
08-01-2003,01:00,17,R,ugm-3 (GRAV EQ),,,,,,,,,,,,,,,
08-01-2003,02:00,13,R,ugm-3 (GRAV EQ),,,,,,,,,,44,R,ugm-3,,,
08-01-2003,03:00,16,R,ugm-3 (GRAV EQ),0.0,R,ugm-3,16.6,R,ugm-3,16.6,R,ugm-3,44,R,ugm-3,,,
08-01-2003,04:00,16,R,ugm-3 (GRAV EQ),0.0,R,ugm-3,16.6,R,ugm-3,16.6,R,ugm-3,42,R,ugm-3,,,
08-01-2003,05:00,16,R,ugm-3 (GRAV EQ),0.0,R,ugm-3,11.7,R,ugm-3,11.7,R,ugm-3,44,R,ugm-3,,,
08-01-2003,06:00,16,R,ugm-3 (GRAV EQ),0.0,R,ugm-3,12.6,R,ugm-3,12.6,R,ugm-3,44,R,ugm-3,,,
08-01-2003,07:00,17,R,ugm-3 (GRAV EQ),0.0,R,ugm-3,14.3,R,ugm-3,14.3,R,ugm-3,42,R,ugm-3,,,
08-01-2003,08:00,16,R,ugm-3 (GRAV EQ),0.0,R,ugm-3,14.9,R,ugm-3,14.9,R,ugm-3,40,R,ugm-3,,,
08-01-2003,09:00,16,R,ugm-3 (GRAV EQ),0.0,R,ugm-3,13.2,R,ugm-3,13.2,R,ugm-3,42,R,ugm-3,,,
08-01-2003,10:00,13,R,ugm-3 (GRAV EQ),0.5,R,ugm-3,11.3,R,ugm-3,12.0,R,ugm-3,46,R,ugm-3,,,
08-01-2003,11:00,13,R,ugm-3 (GRAV EQ),2.1,R,ugm-3,10.7,R,ugm-3,13.9,R,ugm-3,48,R,ugm-3,,,
08-01-2003,12:00,13,R,ugm-3 (GRAV EQ),3.5,R,ugm-3,11.7,R,ugm-3,17.0,R,ugm-3,48,R,ugm-3,,,
08-01-2003,13:00,12,R,ugm-3 (GRAV EQ),0.0,R,ugm-3,5.9,R,ugm-3,5.9,R,ugm-3,54,R,ugm-3,,,
08-01-2003,14:00,10,R,ugm-3 (GRAV EQ),0.0,R,ugm-3,5.5,R,ugm-3,5.5,R,ugm-3,64,R,ugm-3,,,
08-01-2003,15:00,12,R,ugm-3 (GRAV EQ),0.0,R,ugm-3,8.4,R,ugm-3,8.4,R,ugm-3,56,R,ugm-3,,,
08-01-2003,16:00,22,R,ugm-3 (GRAV EQ),0.0,R,ugm-3,20.4,R,ugm-3,20.4,R,ugm-3,42,R,ugm-3,,,
08-01-2003,17:00,21,R,ugm-3 (GRAV EQ),0.0,R,ugm-3,15.5,R,ugm-3,15.5,R,ugm-3,48,R,ugm-3,,,
08-01-2003,18:00,21,R,ugm-3 (GRAV EQ),0.0,R,ugm-3,14.9,R,ugm-3,14.9,R,ugm-3,48,R,ugm-3,,,
08-01-2003,19:00,21,R,ugm-3 (GRAV EQ),0.0,R,ugm-3,15.5,R,ugm-3,15.5,R,ugm-3,46,R,ugm-3,,,
08-01-2003,20:00,22,R,ugm-3 (GRAV EQ),0.0,R,ugm-3,22.2,R,ugm-3,22.2,R,ugm-3,38,R,ugm-3,,,
08-01-2003,21:00,26,R,ugm-3 (GRAV EQ),0.0,R,ugm-3,23.7,R,ugm-3,23.7,R,ugm-3,34,R,ugm-3,,,
08-01-2003,22:00,21,R,ugm-3 (GRAV EQ),0.0,R,ugm-3,21.6,R,ugm-3,21.6,R,ugm-3,36,R,ugm-3,,,
08-01-2003,23:00,20,R,ugm-3 (GRAV EQ),0.0,R,ugm-3,22.7,R,ugm-3,22.7,R,ugm-3,36,R,ugm-3,,,
08-01-2003,24:00,17,R,ugm-3 (GRAV EQ),0.0,R,ugm-3,20.4,R,ugm-3,20.4,R,ugm-3,38,R,ugm-3,,,
09-01-2003,01:00,17,R,ugm-3 (GRAV EQ),0.0,R,ugm-3,15.5,R,ugm-3,15.5,R,ugm-3,44,R,ugm-3,,,
09-01-2003,02:00,14,R,ugm-3 (GRAV EQ),,,,,,,,,,54,R,ugm-3,,,
09-01-2003,03:00,16,R,ugm-3 (GRAV EQ),0.0,R,ugm-3,8.8,R,ugm-3,8.8,R,ugm-3,52,R,ugm-3,,,
09-01-2003,04:00,20,R,ugm-3 (GRAV EQ),0.0,R,ugm-3,11.1,R,ugm-3,11.1,R,ugm-3,52,R,ugm-3,,,
09-01-2003,05:00,21,R,ugm-3 (GRAV EQ),0.0,R,ugm-3,11.1,R,ugm-3,11.1,R,ugm-3,46,R,ugm-3,,,
09-01-2003,06:00,20,R,ugm-3 (GRAV EQ),0.0,R,ugm-3,11.1,R,ugm-3,11.1,R,ugm-3,46,R,ugm-3,,,
09-01-2003,07:00,16,R,ugm-3 (GRAV EQ),0.0,R,ugm-3,6.7,R,ugm-3,6.7,R,ugm-3,52,R,ugm-3,,,
09-01-2003,08:00,16,R,ugm-3 (GRAV EQ),0.0,R,ugm-3,6.7,R,ugm-3,6.7,R,ugm-3,52,R,ugm-3,,,
09-01-2003,09:00,17,R,ugm-3 (GRAV EQ),0.0,R,ugm-3,7.3,R,ugm-3,7.3,R,ugm-3,50,R,ugm-3,,,
09-01-2003,10:00,14,R,ugm-3 (GRAV EQ),0.0,R,ugm-3,7.8,R,ugm-3,7.8,R,ugm-3,52,R,ugm-3,,,
09-01-2003,11:00,16,R,ugm-3 (GRAV EQ),0.0,R,ugm-3,9.9,R,ugm-3,9.9,R,ugm-3,54,R,ugm-3,,,
09-01-2003,12:00,13,R,ugm-3 (GRAV EQ),0.0,R,ugm-3,6.7,R,ugm-3,6.7,R,ugm-3,60,R,ugm-3,,,
09-01-2003,13:00,9,R,ugm-3 (GRAV EQ),0.0,R,ugm-3,6.7,R,ugm-3,6.7,R,ugm-3,64,R,ugm-3,,,
09-01-2003,14:00,10,R,ugm-3 (GRAV EQ),0.5,R,ugm-3,7.1,R,ugm-3,7.8,R,ugm-3,62,R,ugm-3,,,
09-01-2003,15:00,10,R,ugm-3 (GRAV EQ),0.0,R,ugm-3,11.1,R,ugm-3,11.1,R,ugm-3,60,R,ugm-3,,,
09-01-2003,16:00,13,R,ugm-3 (GRAV EQ),0.0,R,ugm-3,11.1,R,ugm-3,11.1,R,ugm-3,58,R,ugm-3,,,
09-01-2003,17:00,14,R,ugm-3 (GRAV EQ),0.0,R,ugm-3,14.5,R,ugm-3,14.5,R,ugm-3,50,R,ugm-3,,,
09-01-2003,18:00,16,R,ugm-3 (GRAV EQ),0.0,R,ugm-3,14.3,R,ugm-3,14.3,R,ugm-3,50,R,ugm-3,,,
09-01-2003,19:00,14,R,ugm-3 (GRAV EQ),0.0,R,ugm-3,10.5,R,ugm-3,10.5,R,ugm-3,52,R,ugm-3,,,
09-01-2003,20:00,13,R,ugm-3 (GRAV EQ),0.0,R,ugm-3,6.7,R,ugm-3,6.7,R,ugm-3,56,R,ugm-3,,,
09-01-2003,21:00,13,R,ugm-3 (GRAV EQ),0.0,R,ugm-3,6.1,R,ugm-3,6.1,R,ugm-3,56,R,ugm-3,,,
09-01-2003,22:00,17,R,ugm-3 (GRAV EQ),0.0,R,ugm-3,5.0,R,ugm-3,5.0,R,ugm-3,54,R,ugm-3,,,
09-01-2003,23:00,14,R,ugm-3 (GRAV EQ),0.0,R,ugm-3,6.7,R,ugm-3,6.7,R,ugm-3,54,R,ugm-3,,,
09-01-2003,24:00,14,R,ugm-3 (GRAV EQ),0.0,R,ugm-3,6.7,R,ugm-3,6.7,R,ugm-3,56,R,ugm-3,,,
10-01-2003,01:00,14,R,ugm-3 (GRAV EQ),0.0,R,ugm-3,5.9,R,ugm-3,5.9,R,ugm-3,54,R,ugm-3,,,
10-01-2003,02:00,13,R,ugm-3 (GRAV EQ),,,,,,,,,,58,R,ugm-3,,,
10-01-2003,03:00,13,R,ugm-3 (GRAV EQ),0.0,R,ugm-3,2.3,R,ugm-3,2.3,R,ugm-3,64,R,ugm-3,,,
10-01-2003,04:00,12,R,ugm-3 (GRAV EQ),0.0,R,ugm-3,2.3,R,ugm-3,2.3,R,ugm-3,64,R,ugm-3,,,
10-01-2003,05:00,12,R,ugm-3 (GRAV EQ),0.0,R,ugm-3,2.3,R,ugm-3,2.3,R,ugm-3,64,R,ugm-3,,,
10-01-2003,06:00,12,R,ugm-3 (GRAV EQ),0.0,R,ugm-3,2.3,R,ugm-3,2.3,R,ugm-3,62,R,ugm-3,,,
10-01-2003,07:00,14,R,ugm-3 (GRAV EQ),0.0,R,ugm-3,2.3,R,ugm-3,2.3,R,ugm-3,58,R,ugm-3,,,
10-01-2003,08:00,14,R,ugm-3 (GRAV EQ),0.0,R,ugm-3,2.3,R,ugm-3,2.3,R,ugm-3,54,R,ugm-3,,,
10-01-2003,09:00,17,R,ugm-3 (GRAV EQ),0.0,R,ugm-3,5.5,R,ugm-3,5.5,R,ugm-3,52,R,ugm-3,,,
10-01-2003,10:00,16,R,ugm-3 (GRAV EQ),0.0,R,ugm-3,6.7,R,ugm-3,6.7,R,ugm-3,50,R,ugm-3,,,
10-01-2003,11:00,12,R,ugm-3 (GRAV EQ),1.5,R,ugm-3,3.8,R,ugm-3,6.1,R,ugm-3,58,R,ugm-3,,,
10-01-2003,12:00,10,R,ugm-3 (GRAV EQ),1.0,R,ugm-3,1.9,R,ugm-3,3.4,R,ugm-3,62,R,ugm-3,,,
10-01-2003,13:00,5,R,ugm-3 (GRAV EQ),0.0,R,ugm-3,2.3,R,ugm-3,2.3,R,ugm-3,74,R,ugm-3,,,
10-01-2003,14:00,5,R,ugm-3 (GRAV EQ),0.0,R,ugm-3,0.0,R,ugm-3,0.0,R,ugm-3,76,R,ugm-3,,,
10-01-2003,15:00,8,R,ugm-3 (GRAV EQ),0.0,R,ugm-3,2.3,R,ugm-3,2.3,R,ugm-3,76,R,ugm-3,,,
10-01-2003,16:00,9,R,ugm-3 (GRAV EQ),0.0,R,ugm-3,2.3,R,ugm-3,2.3,R,ugm-3,76,R,ugm-3,,,
10-01-2003,17:00,10,R,ugm-3 (GRAV EQ),0.0,R,ugm-3,2.3,R,ugm-3,2.3,R,ugm-3,72,R,ugm-3,,,
10-01-2003,18:00,14,R,ugm-3 (GRAV EQ),0.0,R,ugm-3,2.9,R,ugm-3,2.9,R,ugm-3,70,R,ugm-3,,,
10-01-2003,19:00,8,R,ugm-3 (GRAV EQ),0.0,R,ugm-3,2.3,R,ugm-3,2.3,R,ugm-3,68,R,ugm-3,,,
10-01-2003,20:00,12,R,ugm-3 (GRAV EQ),0.0,R,ugm-3,2.3,R,ugm-3,2.3,R,ugm-3,68,R,ugm-3,,,
10-01-2003,21:00,10,R,ugm-3 (GRAV EQ),0.0,R,ugm-3,2.3,R,ugm-3,2.3,R,ugm-3,72,R,ugm-3,,,
10-01-2003,22:00,13,R,ugm-3 (GRAV EQ),0.0,R,ugm-3,2.3,R,ugm-3,2.3,R,ugm-3,66,R,ugm-3,,,
10-01-2003,23:00,14,R,ugm-3 (GRAV EQ),0.0,R,ugm-3,2.3,R,ugm-3,2.3,R,ugm-3,60,R,ugm-3,,,
10-01-2003,24:00,9,R,ugm-3 (GRAV EQ),0.0,R,ugm-3,2.3,R,ugm-3,2.3,R,ugm-3,60,R,ugm-3,,,
11-01-2003,01:00,8,R,ugm-3 (GRAV EQ),0.0,R,ugm-3,2.3,R,ugm-3,2.3,R,ugm-3,60,R,ugm-3,,,
11-01-2003,02:00,10,R,ugm-3 (GRAV EQ),,,,,,,,,,60,R,ugm-3,,,
11-01-2003,03:00,12,R,ugm-3 (GRAV EQ),0.0,R,ugm-3,3.4,R,ugm-3,3.4,R,ugm-3,56,R,ugm-3,,,
11-01-2003,04:00,12,R,ugm-3 (GRAV EQ),0.0,R,ugm-3,2.3,R,ugm-3,2.3,R,ugm-3,54,R,ugm-3,,,
11-01-2003,05:00,13,R,ugm-3 (GRAV EQ),0.0,R,ugm-3,2.9,R,ugm-3,2.9,R,ugm-3,56,R,ugm-3,,,
11-01-2003,06:00,10,R,ugm-3 (GRAV EQ),0.0,R,ugm-3,4.6,R,ugm-3,4.6,R,ugm-3,54,R,ugm-3,,,
11-01-2003,07:00,12,R,ugm-3 (GRAV EQ),0.0,R,ugm-3,4.6,R,ugm-3,4.6,R,ugm-3,52,R,ugm-3,,,
11-01-2003,08:00,17,R,ugm-3 (GRAV EQ),0.0,R,ugm-3,5.7,R,ugm-3,5.7,R,ugm-3,48,R,ugm-3,,,
11-01-2003,09:00,17,R,ugm-3 (GRAV EQ),0.5,R,ugm-3,9.4,R,ugm-3,10.1,R,ugm-3,42,R,ugm-3,,,
11-01-2003,10:00,18,R,ugm-3 (GRAV EQ),3.0,R,ugm-3,11.8,R,ugm-3,16.4,R,ugm-3,38,R,ugm-3,,,
11-01-2003,11:00,20,R,ugm-3 (GRAV EQ),4.0,R,ugm-3,9.7,R,ugm-3,15.9,R,ugm-3,44,R,ugm-3,,,
11-01-2003,12:00,18,R,ugm-3 (GRAV EQ),4.0,R,ugm-3,7.4,R,ugm-3,13.6,R,ugm-3,52,R,ugm-3,,,
11-01-2003,13:00,21,R,ugm-3 (GRAV EQ),4.0,R,ugm-3,8.0,R,ugm-3,14.1,R,ugm-3,54,R,ugm-3,,,
11-01-2003,14:00,22,R,ugm-3 (GRAV EQ),4.0,R,ugm-3,9.7,R,ugm-3,15.9,R,ugm-3,54,R,ugm-3,,,
11-01-2003,15:00,20,R,ugm-3 (GRAV EQ),3.0,R,ugm-3,10.1,R,ugm-3,14.7,R,ugm-3,56,R,ugm-3,,,
11-01-2003,16:00,22,R,ugm-3 (GRAV EQ),2.5,R,ugm-3,14.3,R,ugm-3,18.1,R,ugm-3,48,R,ugm-3,,,
11-01-2003,17:00,23,R,ugm-3 (GRAV EQ),2.0,R,ugm-3,25.2,R,ugm-3,28.3,R,ugm-3,36,R,ugm-3,,,
11-01-2003,18:00,21,R,ugm-3 (GRAV EQ),3.0,R,ugm-3,27.1,R,ugm-3,31.7,R,ugm-3,36,R,ugm-3,,,
11-01-2003,19:00,26,R,ugm-3 (GRAV EQ),1.5,R,ugm-3,27.7,R,ugm-3,30.0,R,ugm-3,36,R,ugm-3,,,
11-01-2003,20:00,26,R,ugm-3 (GRAV EQ),0.0,R,ugm-3,28.3,R,ugm-3,28.3,R,ugm-3,38,R,ugm-3,,,
11-01-2003,21:00,27,R,ugm-3 (GRAV EQ),0.0,R,ugm-3,30.0,R,ugm-3,30.0,R,ugm-3,36,R,ugm-3,,,
11-01-2003,22:00,26,R,ugm-3 (GRAV EQ),0.0,R,ugm-3,34.0,R,ugm-3,34.0,R,ugm-3,30,R,ugm-3,,,
11-01-2003,23:00,25,R,ugm-3 (GRAV EQ),0.0,R,ugm-3,38.0,R,ugm-3,38.0,R,ugm-3,22,R,ugm-3,,,
11-01-2003,24:00,25,R,ugm-3 (GRAV EQ),0.0,R,ugm-3,35.1,R,ugm-3,35.1,R,ugm-3,26,R,ugm-3,,,
12-01-2003,01:00,21,R,ugm-3 (GRAV EQ),0.0,R,ugm-3,33.6,R,ugm-3,33.6,R,ugm-3,26,R,ugm-3,,,
12-01-2003,02:00,8,R,ugm-3 (GRAV EQ),,,,,,,,,,26,R,ugm-3,,,
12-01-2003,03:00,17,R,ugm-3 (GRAV EQ),0.0,R,ugm-3,28.1,R,ugm-3,28.1,R,ugm-3,26,R,ugm-3,,,
12-01-2003,04:00,20,R,ugm-3 (GRAV EQ),0.0,R,ugm-3,28.1,R,ugm-3,28.1,R,ugm-3,28,R,ugm-3,,,
12-01-2003,05:00,20,R,ugm-3 (GRAV EQ),0.0,R,ugm-3,28.1,R,ugm-3,28.1,R,ugm-3,28,R,ugm-3,,,
12-01-2003,06:00,22,R,ugm-3 (GRAV EQ),0.0,R,ugm-3,30.4,R,ugm-3,30.4,R,ugm-3,24,R,ugm-3,,,
12-01-2003,07:00,33,R,ugm-3 (GRAV EQ),1.0,R,ugm-3,28.8,R,ugm-3,30.4,R,ugm-3,24,R,ugm-3,,,